Moses Lake, WA
on Saturday, November 3, 2012

Saturday
Previous Day Next Day
Daily Summary
 ActualAverageRecord
Temperature
Mean Temperature °F / °C 42°F / 6°C  
Max Temperature 55°F / 13°C 53°F / 12°C 63°F / 17°C (2010)
Min Temperature 43°F / 6°C 32°F / 0°C 12°F / -11°C (2002)
Degree Days
Heating Degree Days 16 23  
Month to date heating degree days 48 67  
Since 1 July heating degree days 573 704  
Cooling Degree Days 0 0  
Month to date cooling degree days 0 0  
Year to date cooling degree days 719 615  
Moisture
Dew Point 44°F / 7°C   
Average Humidity 81    
Maximum Humidity 89    
Minimum Humidity 72    
Precipitation
Precipitation 0.06 in / 1.52 cm 0.03 in / 0.76 cm 0.23 in / 0.58 cm (2005)
Month to date precipitation 0.08 0.10  
Year to date precipitation 6.68 6.57  
Wind
Wind Speed 5 mph / 9 km/h   
Max Wind Speed 15 mph / 24 km/h   
Max Gust Speed 16 mph / 26 km/h   
Visibility 7 miles / 11 kilometers   
Events Rain   

Key: T is trace of precipitation, MM is missing value
Source: NWS Daily Summary
Time(PDT)TemperatureDew PointHumidity Pressure Visibility Wind DirectionWind SpeedGust SpeedPrecipitationEvents Conditions
12:52 AM 46.0°F / 7.8°C 42.1°F / 5.6°C 86% 30.04 in / 1017.1 hPa 10.0 miles / 16.1 kilometers NNW 5.8 mph / 9.3 km/h - N/A   Clear
1:52 AM 45.0°F / 7.2°C 41.0°F / 5.0°C 86% 30.04 in / 1017.3 hPa 10.0 miles / 16.1 kilometers Calm Calm - N/A   Clear
2:52 AM 44.1°F / 6.7°C 39.9°F / 4.4°C 85% 30.04 in / 1017.1 hPa 9.0 miles / 14.5 kilometers NNE 3.5 mph / 5.6 km/h - N/A   Mostly Cloudy
3:52 AM 44.1°F / 6.7°C 39.9°F / 4.4°C 85% 30.04 in / 1017.0 hPa 8.0 miles / 12.9 kilometers Calm Calm - N/A   Mostly Cloudy
4:38 AM 44.6°F / 7.0°C 41.0°F / 5.0°C 87% 30.03 in / 1016.8 hPa 8.0 miles / 12.9 kilometers Calm Calm - N/A   Overcast
4:52 AM 44.1°F / 6.7°C 39.9°F / 4.4°C 85% 30.04 in / 1017.3 hPa 8.0 miles / 12.9 kilometers North 3.5 mph / 5.6 km/h - N/A   Overcast
5:49 AM 44.6°F / 7.0°C 41.0°F / 5.0°C 87% 30.04 in / 1017.2 hPa 5.0 miles / 8.0 kilometers Calm Calm - 0.01 in / 0.3 cm Rain Light Rain
5:52 AM 45.0°F / 7.2°C 41.0°F / 5.0°C 86% 30.20 in / 1022.6 hPa 5.0 miles / 8.0 kilometers Calm Calm - 0.01 in / 0.3 cm Rain Light Rain
6:52 AM 45.0°F / 7.2°C 41.0°F / 5.0°C 86% 30.21 in / 1022.9 hPa 5.0 miles / 8.0 kilometers Calm Calm - 0.03 in / 0.8 cm Rain Light Rain
7:31 AM 44.6°F / 7.0°C 41.0°F / 5.0°C 87% 30.05 in / 1017.5 hPa 4.0 miles / 6.4 kilometers Calm Calm - 0.01 in / 0.3 cm   Overcast
7:52 AM 45.0°F / 7.2°C 41.0°F / 5.0°C 86% 30.22 in / 1023.1 hPa 3.0 miles / 4.8 kilometers SSE 3.5 mph / 5.6 km/h - 0.01 in / 0.3 cm   Overcast
7:59 AM 44.6°F / 7.0°C 41.0°F / 5.0°C 87% 30.05 in / 1017.5 hPa 2.0 miles / 3.2 kilometers Calm Calm - N/A   Overcast
8:22 AM 44.6°F / 7.0°C 42.8°F / 6.0°C 93% 30.05 in / 1017.5 hPa 2.0 miles / 3.2 kilometers SE 3.5 mph / 5.6 km/h - N/A   Overcast
8:36 AM 44.6°F / 7.0°C 42.8°F / 6.0°C 93% 30.05 in / 1017.5 hPa 3.0 miles / 4.8 kilometers Calm Calm - N/A   Overcast
8:52 AM 46.0°F / 7.8°C 43.0°F / 6.1°C 89% 30.22 in / 1023.4 hPa 4.0 miles / 6.4 kilometers Calm Calm - 0.00 in / 0.0 cm Rain Light Rain
9:52 AM 46.9°F / 8.3°C 43.0°F / 6.1°C 86% 30.09 in / 1018.8 hPa 5.0 miles / 8.0 kilometers South 3.5 mph / 5.6 km/h - 0.00 in / 0.0 cm Rain Light Rain
10:38 AM 48.2°F / 9.0°C 44.6°F / 7.0°C 87% 30.08 in / 1018.5 hPa 4.0 miles / 6.4 kilometers South 4.6 mph / 7.4 km/h - 0.01 in / 0.3 cm   Overcast
10:52 AM 48.9°F / 9.4°C 45.0°F / 7.2°C 86% 30.09 in / 1018.7 hPa 6.0 miles / 9.7 kilometers SSE 5.8 mph / 9.3 km/h - 0.01 in / 0.3 cm   Overcast
10:59 AM 48.2°F / 9.0°C 44.6°F / 7.0°C 87% 30.08 in / 1018.5 hPa 6.0 miles / 9.7 kilometers South 5.8 mph / 9.3 km/h - N/A   Overcast
11:52 AM 50.0°F / 10.0°C 46.0°F / 7.8°C 86% 30.09 in / 1018.9 hPa 7.0 miles / 11.3 kilometers South 5.8 mph / 9.3 km/h - N/A   Mostly Cloudy
12:52 PM 51.1°F / 10.6°C 45.0°F / 7.2°C 80% 30.09 in / 1018.7 hPa 9.0 miles / 14.5 kilometers South 6.9 mph / 11.1 km/h - N/A   Mostly Cloudy
1:52 PM 53.1°F / 11.7°C 46.0°F / 7.8°C 77% 30.07 in / 1018.2 hPa 7.0 miles / 11.3 kilometers South 8.1 mph / 13.0 km/h - N/A   Mostly Cloudy
2:09 PM 53.6°F / 12.0°C 46.4°F / 8.0°C 77% 30.06 in / 1017.8 hPa 7.0 miles / 11.3 kilometers SSW 8.1 mph / 13.0 km/h - N/A   Scattered Clouds
2:52 PM 54.0°F / 12.2°C 46.0°F / 7.8°C 75% 30.08 in / 1018.4 hPa 8.0 miles / 12.9 kilometers South 9.2 mph / 14.8 km/h - N/A   Scattered Clouds
3:52 PM 55.0°F / 12.8°C 46.0°F / 7.8°C 72% 30.08 in / 1018.4 hPa 9.0 miles / 14.5 kilometers South 6.9 mph / 11.1 km/h - N/A   Clear
4:52 PM 54.0°F / 12.2°C 46.9°F / 8.3°C 77% 30.08 in / 1018.6 hPa 9.0 miles / 14.5 kilometers South 9.2 mph / 14.8 km/h - N/A   Clear
5:52 PM 54.0°F / 12.2°C 46.9°F / 8.3°C 77% 30.09 in / 1018.8 hPa 10.0 miles / 16.1 kilometers South 10.4 mph / 16.7 km/h - N/A   Clear
6:52 PM 54.0°F / 12.2°C 46.9°F / 8.3°C 77% 30.09 in / 1019.0 hPa 10.0 miles / 16.1 kilometers South 11.5 mph / 18.5 km/h - N/A   Clear
7:52 PM 53.1°F / 11.7°C 46.9°F / 8.3°C 80% 30.11 in / 1019.5 hPa 10.0 miles / 16.1 kilometers South 5.8 mph / 9.3 km/h - N/A   Partly Cloudy
8:52 PM 52.0°F / 11.1°C 46.9°F / 8.3°C 83% 30.12 in / 1019.7 hPa 10.0 miles / 16.1 kilometers South 8.1 mph / 13.0 km/h - N/A   Overcast
9:52 PM 54.0°F / 12.2°C 46.0°F / 7.8°C 75% 30.12 in / 1019.8 hPa 10.0 miles / 16.1 kilometers South 9.2 mph / 14.8 km/h - N/A   Mostly Cloudy
10:52 PM 55.0°F / 12.8°C 46.0°F / 7.8°C 72% 30.14 in / 1020.5 hPa 10.0 miles / 16.1 kilometers SSW 10.4 mph / 16.7 km/h - N/A   Overcast
11:52 PM 54.0°F / 12.2°C 46.0°F / 7.8°C 75% 30.15 in / 1021.0 hPa 10.0 miles / 16.1 kilometers SSW 5.8 mph / 9.3 km/h - N/A   Overcast
Moon Phase
Nov. 03 Nov. 06 Nov. 13 Nov. 20 Nov. 28
Sunrise:07:44 AM (PDT) Moon Rise:09:16 PM (PDT)11/3
Sunset:05:36 PM (PDT) Moon Set:11:58 AM (PDT)11/3

Copyright © 2014 The Weather Underground, Inc.